| time (UTC) | temp F | wind direction | speed knots | gust knots | rain 1hr in | rain 24hr in | rain mn in | humidity % | barometer mb |
| 20260506103335 | 76 | 152 | 0.9 | 2.6 | 0.00 | 0.00 | 0.00 | 89 | 1009.5 |
| 20260506102830 | 76 | 152 | 0.0 | 2.6 | 0.00 | 0.00 | 0.00 | 89 | 1009.4 |
| 20260506102637 | 76 | 152 | 1.7 | 5.2 | 0.00 | 0.00 | 0.00 | 89 | 1009.4 |
| 20260506102628 | 76 | 152 | 0.9 | 5.2 | 0.00 | 0.00 | 0.00 | 89 | 1009.4 |
| 20260506101329 | 76 | 170 | 2.6 | 5.2 | 0.00 | 0.00 | 0.00 | 89 | 1009.3 |
| 20260506101100 | 76 | 156 | 2.6 | 7.0 | 0.00 | 0.00 | 0.00 | 89 | 1009.3 |
| 20260506100332 | 76 | 171 | 3.5 | 7.0 | 0.00 | 0.00 | 0.00 | 89 | 1009.1 |
| 20260506095821 | 76 | 144 | 3.5 | 7.0 | 0.00 | 0.00 | 0.00 | 89 | 1009.0 |
| 20260506095311 | 76 | 159 | 3.5 | 7.0 | 0.00 | 0.00 | 0.00 | 89 | 1008.9 |
| 20260506094810 | 76 | 117 | 3.5 | 7.8 | 0.00 | 0.00 | 0.00 | 89 | 1008.9 |
| 20260506094310 | 76 | 187 | 4.3 | 9.6 | 0.00 | 0.00 | 0.00 | 89 | 1008.9 |
| 20260506093825 | 76 | 159 | 4.3 | 9.6 | 0.00 | 0.00 | 0.00 | 89 | 1008.9 |
| 20260506093311 | 76 | 196 | 4.3 | 8.7 | 0.00 | 0.00 | 0.00 | 89 | 1008.8 |
| 20260506092811 | 76 | 176 | 4.3 | 9.6 | 0.00 | 0.00 | 0.00 | 89 | 1008.8 |
| 20260506092310 | 76 | 210 | 3.5 | 9.6 | 0.00 | 0.00 | 0.00 | 89 | 1008.8 |
| 20260506092053 | 76 | 188 | 3.5 | 8.7 | 0.00 | 0.00 | 0.00 | 89 | 1008.7 |
| 20260506091307 | 76 | 155 | 3.5 | 8.7 | 0.00 | 0.00 | 0.00 | 89 | 1008.6 |
| 20260506090805 | 76 | 166 | 3.5 | 7.8 | 0.00 | 0.00 | 0.00 | 89 | 1008.6 |
| 20260506090307 | 76 | 145 | 4.3 | 7.8 | 0.00 | 0.00 | 0.00 | 88 | 1008.5 |
| 20260506085836 | 76 | 130 | 3.5 | 8.7 | 0.00 | 0.00 | 0.00 | 88 | 1008.3 |
| 20260506085807 | 76 | 130 | 3.5 | 8.7 | 0.00 | 0.00 | 0.00 | 88 | 1008.3 |
| 20260506084245 | 76 | 147 | 5.2 | 9.6 | 0.00 | 0.00 | 0.00 | 88 | 1008.4 |
| 20260506083753 | 76 | 168 | 4.3 | 10.4 | 0.00 | 0.00 | 0.00 | 88 | 1008.4 |
| 20260506083244 | 76 | 180 | 4.3 | 10.4 | 0.00 | 0.00 | 0.00 | 88 | 1008.5 |
| 20260506082744 | 76 | 152 | 5.2 | 9.6 | 0.00 | 0.00 | 0.00 | 88 | 1008.4 |
| 20260506082241 | 76 | 149 | 5.2 | 10.4 | 0.00 | 0.00 | 0.00 | 88 | 1008.4 |
| 20260506081739 | 76 | 0 | 5.2 | 10.4 | 0.00 | 0.00 | 0.00 | 88 | 1008.4 |
| 20260506081239 | 76 | 153 | 6.1 | 11.3 | 0.00 | 0.00 | 0.00 | 88 | 1008.5 |
| 20260506080733 | 76 | 152 | 6.1 | 11.3 | 0.00 | 0.00 | 0.00 | 88 | 1008.6 |
| 20260506080234 | 76 | 158 | 6.1 | 9.6 | 0.00 | 0.00 | 0.00 | 88 | 1008.6 |
| 20260506073233 | 76 | 179 | 7.0 | 13.0 | 0.00 | 0.00 | 0.00 | 88 | 1008.9 |
| 20260506072723 | 76 | 161 | 7.8 | 13.0 | 0.00 | 0.00 | 0.00 | 88 | 1008.9 |
| 20260506072224 | 76 | 146 | 7.0 | 13.0 | 0.00 | 0.00 | 0.00 | 88 | 1008.9 |
| 20260506072004 | 76 | 0 | 7.0 | 13.9 | 0.00 | 0.00 | 0.00 | 88 | 1009.0 |
| 20260506071218 | 76 | 157 | 7.8 | 15.6 | 0.00 | 0.00 | 0.00 | 88 | 1009.1 |
| 20260506070717 | 76 | 136 | 8.7 | 15.6 | 0.00 | 0.00 | 0.00 | 88 | 1009.0 |
| 20260506070221 | 76 | 186 | 7.8 | 16.5 | 0.00 | 0.00 | 0.00 | 88 | 1008.8 |
| 20260506062206 | 76 | 0 | 7.0 | 12.2 | 0.00 | 0.00 | 0.00 | 88 | 1008.9 |
| 20260506061705 | 76 | 172 | 7.0 | 13.0 | 0.00 | 0.00 | 0.00 | 88 | 1008.8 |
| 20260506061203 | 76 | 127 | 7.0 | 13.0 | 0.00 | 0.00 | 0.00 | 88 | 1009.0 |
| 20260506060703 | 76 | 125 | 6.1 | 13.0 | 0.00 | 0.00 | 0.00 | 88 | 1008.8 |
| 20260506060201 | 76 | 150 | 6.1 | 13.0 | 0.00 | 0.00 | 0.00 | 88 | 1008.8 |
| 20260506051201 | 76 | 145 | 7.0 | 12.2 | 0.00 | 0.00 | 0.00 | 88 | 1008.9 |
| 20260506050701 | 76 | 146 | 6.1 | 12.2 | 0.00 | 0.00 | 0.00 | 88 | 1008.9 |
| 20260506050427 | 76 | 190 | 6.1 | 12.2 | 0.00 | 0.00 | 0.00 | 88 | 1008.8 |
| 20260506044634 | 76 | 141 | 7.0 | 13.9 | 0.00 | 0.00 | 0.00 | 88 | 1008.8 |
| 20260506044134 | 76 | 0 | 7.8 | 13.9 | 0.00 | 0.00 | 0.00 | 88 | 1008.9 |
| 20260506043634 | 76 | 163 | 7.0 | 13.0 | 0.00 | 0.00 | 0.00 | 88 | 1008.9 |
| 20260506043134 | 77 | 0 | 7.0 | 13.9 | 0.00 | 0.00 | 0.00 | 87 | 1008.8 |
| 20260506042633 | 77 | 157 | 7.0 | 13.9 | 0.00 | 0.00 | 0.00 | 87 | 1008.9 |
| 20260506042134 | 77 | 148 | 6.1 | 12.2 | 0.00 | 0.00 | 0.00 | 87 | 1008.9 |
| 20260506041633 | 77 | 148 | 6.1 | 12.2 | 0.00 | 0.00 | 0.00 | 87 | 1008.7 |
| 20260506041412 | 77 | 144 | 7.0 | 12.2 | 0.00 | 0.00 | 0.00 | 87 | 1008.7 |
| 20260506040632 | 77 | 172 | 7.0 | 12.2 | 0.00 | 0.00 | 0.00 | 87 | 1008.6 |
| 20260506040425 | 77 | 128 | 6.1 | 11.3 | 0.00 | 0.00 | 0.00 | 87 | 1008.6 |
| 20260506035629 | 77 | 0 | 6.1 | 11.3 | 0.00 | 0.00 | 0.00 | 86 | 1008.6 |
| 20260506035131 | 77 | 133 | 7.0 | 12.2 | 0.00 | 0.00 | 0.00 | 86 | 1008.4 |
| 20260506034629 | 77 | 132 | 7.0 | 12.2 | 0.00 | 0.00 | 0.00 | 86 | 1008.3 |
| 20260506034130 | 77 | 164 | 6.1 | 12.2 | 0.00 | 0.00 | 0.00 | 86 | 1008.3 |
| 20260506033629 | 78 | 127 | 6.1 | 10.4 | 0.00 | 0.00 | 0.00 | 86 | 1008.5 |
| 20260506033351 | 78 | 140 | 6.1 | 11.3 | 0.00 | 0.00 | 0.00 | 85 | 1008.5 |
| 20260506032630 | 78 | 157 | 6.1 | 11.3 | 0.00 | 0.00 | 0.00 | 85 | 1008.3 |
| 20260506032131 | 78 | 144 | 6.1 | 11.3 | 0.00 | 0.00 | 0.00 | 85 | 1008.1 |
| 20260506031914 | 78 | 109 | 6.1 | 11.3 | 0.00 | 0.00 | 0.00 | 84 | 1008.1 |
| 20260506031127 | 78 | 134 | 6.1 | 11.3 | 0.00 | 0.00 | 0.00 | 84 | 1008.0 |
| 20260506030625 | 78 | 138 | 6.1 | 10.4 | 0.00 | 0.00 | 0.00 | 84 | 1008.0 |
| 20260506030126 | 78 | 129 | 6.1 | 11.3 | 0.00 | 0.00 | 0.00 | 84 | 1007.8 |
| 20260506025624 | 78 | 133 | 5.2 | 11.3 | 0.00 | 0.00 | 0.00 | 83 | 1008.0 |
| 20260506025124 | 78 | 136 | 5.2 | 9.6 | 0.00 | 0.00 | 0.00 | 83 | 1008.0 |
| 20260506024622 | 78 | 139 | 4.3 | 7.8 | 0.00 | 0.00 | 0.00 | 83 | 1007.7 |
| 20260506024120 | 78 | 118 | 4.3 | 7.8 | 0.00 | 0.00 | 0.00 | 83 | 1007.7 |
| 20260506023623 | 78 | 140 | 4.3 | 7.8 | 0.00 | 0.00 | 0.00 | 83 | 1007.7 |
| 20260506023123 | 78 | 140 | 4.3 | 7.8 | 0.00 | 0.00 | 0.00 | 83 | 1007.5 |
| 20260506022622 | 78 | 125 | 4.3 | 7.8 | 0.00 | 0.00 | 0.00 | 82 | 1007.5 |
| 20260506022143 | 79 | 148 | 4.3 | 7.8 | 0.00 | 0.00 | 0.00 | 82 | 1007.3 |
| 20260506022133 | 78 | 140 | 4.3 | 7.8 | 0.00 | 0.00 | 0.00 | 82 | 1007.3 |
| 20260506021121 | 79 | 104 | 4.3 | 7.8 | 0.00 | 0.00 | 0.00 | 82 | 1007.3 |
| 20260506020612 | 79 | 118 | 5.2 | 7.8 | 0.00 | 0.00 | 0.00 | 82 | 1007.2 |
| 20260506020112 | 79 | 144 | 5.2 | 8.7 | 0.00 | 0.00 | 0.00 | 81 | 1006.9 |
| 20260506015615 | 79 | 0 | 5.2 | 8.7 | 0.00 | 0.00 | 0.00 | 81 | 1006.8 |
| 20260506015112 | 79 | 121 | 3.5 | 7.8 | 0.00 | 0.00 | 0.00 | 81 | 1006.7 |
| 20260506014612 | 79 | 114 | 3.5 | 7.8 | 0.00 | 0.00 | 0.00 | 81 | 1006.7 |
| 20260506014116 | 80 | 118 | 4.3 | 7.8 | 0.00 | 0.00 | 0.00 | 80 | 1006.8 |
| 20260506013616 | 80 | 120 | 4.3 | 7.8 | 0.00 | 0.00 | 0.00 | 80 | 1006.8 |
| 20260506013115 | 80 | 123 | 4.3 | 9.6 | 0.00 | 0.00 | 0.00 | 80 | 1006.7 |
| 20260506012611 | 80 | 130 | 4.3 | 9.6 | 0.00 | 0.00 | 0.00 | 79 | 1006.9 |
| 20260506012125 | 80 | 0 | 4.3 | 8.7 | 0.00 | 0.00 | 0.00 | 79 | 1006.8 |
| 20260506011618 | 81 | 134 | 4.3 | 7.8 | 0.00 | 0.00 | 0.00 | 78 | 1007.0 |
| 20260506011608 | 81 | 138 | 4.3 | 7.0 | 0.00 | 0.00 | 0.00 | 78 | 1006.8 |
| 20260506011045 | 81 | 127 | 3.5 | 7.8 | 0.00 | 0.00 | 0.00 | 77 | 1006.9 |
| 20260506010458 | 82 | 142 | 2.6 | 6.1 | 0.00 | 0.00 | 0.00 | 76 | 1006.9 |
| 20260506010440 | 82 | 148 | 2.6 | 6.1 | 0.00 | 0.00 | 0.00 | 76 | 1007.0 |
| 20260506010356 | 82 | 172 | 2.6 | 7.0 | 0.00 | 0.00 | 0.00 | 75 | 1006.9 |
| 20260506010339 | 81 | 133 | 3.5 | 6.1 | 0.00 | 0.00 | 0.00 | 77 | 1006.8 |
| 20260506010300 | 83 | 151 | 2.6 | 7.0 | 0.00 | 0.00 | 0.00 | 74 | 1007.0 |
| 20260506010224 | 83 | 132 | 3.5 | 7.8 | 0.00 | 0.00 | 0.00 | 74 | 1006.9 |
| 20260506010139 | 83 | 173 | 5.2 | 8.7 | 0.00 | 0.00 | 0.00 | 73 | 1006.6 |
| 20260506010111 | 81 | 133 | 3.5 | 6.1 | 0.00 | 0.00 | 0.00 | 77 | 1006.8 |
| 20260506010029 | 82 | 0 | 3.5 | 7.0 | 0.00 | 0.00 | 0.00 | 76 | 1006.7 |
| 20260506005930 | 82 | 141 | 2.6 | 7.0 | 0.00 | 0.00 | 0.00 | 76 | 1006.7 |
| 20260506005808 | 82 | 130 | 3.5 | 6.1 | 0.00 | 0.00 | 0.00 | 76 | 1006.8 |
| 20260506001320 | 83 | 146 | 2.6 | 7.8 | 0.00 | 0.00 | 0.00 | 74 | 1007.0 |
| 20260506000542 | 83 | 182 | 2.6 | 6.1 | 0.00 | 0.00 | 0.00 | 75 | 1006.8 |
| 20260506000519 | 83 | 121 | 3.5 | 7.8 | 0.00 | 0.00 | 0.00 | 74 | 1006.7 |
| 20260505235743 | 84 | 181 | 5.2 | 12.2 | 0.00 | 0.00 | 0.00 | 71 | 1006.7 |
| 20260505235522 | 83 | 157 | 4.3 | 9.6 | 0.00 | 0.00 | 0.00 | 74 | 1006.6 |
| 20260505235316 | 84 | 150 | 5.2 | 10.4 | 0.00 | 0.00 | 0.00 | 72 | 1006.6 |
| 20260505235001 | 83 | 150 | 4.3 | 9.6 | 0.00 | 0.00 | 0.00 | 74 | 1006.6 |
| 20260505234956 | 83 | 138 | 4.3 | 10.4 | 0.00 | 0.00 | 0.00 | 73 | 1006.5 |
| 20260505234244 | 83 | 166 | 5.2 | 10.4 | 0.00 | 0.00 | 0.00 | 73 | 1006.5 |
| 20260505231431 | 84 | 0 | 4.3 | 12.2 | 0.00 | 0.00 | 0.00 | 72 | 1006.7 |
| 20260505230928 | 84 | 196 | 5.2 | 11.3 | 0.00 | 0.00 | 0.00 | 72 | 1006.7 |
| 20260505230648 | 84 | 180 | 5.2 | 11.3 | 0.00 | 0.00 | 0.00 | 71 | 1006.5 |
| 20260505230155 | 84 | 167 | 4.3 | 7.0 | 0.00 | 0.00 | 0.00 | 71 | 1006.4 |
| 20260505225416 | 85 | 150 | 6.1 | 0.0 | 0.00 | 0.00 | 0.00 | 70 | 1006.6 |
| 20260505224925 | 85 | 142 | 5.2 | 9.6 | 0.00 | 0.00 | 0.00 | 70 | 1006.4 |
| 20260505224655 | 85 | 142 | 5.2 | 12.2 | 0.00 | 0.00 | 0.00 | 70 | 1006.4 |
| 20260505224149 | 85 | 158 | 6.1 | 12.2 | 0.00 | 0.00 | 0.00 | 69 | 1006.4 |
| 20260505223943 | 85 | 158 | 6.1 | 12.2 | 0.00 | 0.00 | 0.00 | 69 | 1006.4 |
| 20260505223357 | 85 | 165 | 6.1 | 13.9 | 0.00 | 0.00 | 0.00 | 69 | 1006.4 |
| 20260505222649 | 85 | 167 | 6.1 | 13.0 | 0.00 | 0.00 | 0.00 | 69 | 1006.4 |
| 20260505222459 | 85 | 162 | 6.1 | 12.2 | 0.00 | 0.00 | 0.00 | 69 | 1006.5 |
| 20260505221920 | 85 | 167 | 6.1 | 13.0 | 0.00 | 0.00 | 0.00 | 69 | 1006.4 |
| 20260505221649 | 85 | 167 | 6.1 | 13.0 | 0.00 | 0.00 | 0.00 | 70 | 1006.2 |
| 20260505220647 | 87 | 153 | 6.1 | 13.0 | 0.00 | 0.00 | 0.00 | 67 | 1006.5 |
| 20260505220623 | 86 | 166 | 5.2 | 13.0 | 0.00 | 0.00 | 0.00 | 71 | 1006.8 |
| 20260505215249 | 87 | 159 | 7.0 | 13.0 | 0.00 | 0.00 | 0.00 | 69 | 1006.7 |
| 20260505214748 | 88 | 108 | 7.0 | 14.8 | 0.00 | 0.00 | 0.00 | 67 | 1006.5 |
| 20260505214655 | 87 | 144 | 7.0 | 18.2 | 0.00 | 0.00 | 0.00 | 68 | 1006.8 |
| 20260505214254 | 87 | 180 | 7.0 | 18.2 | 0.00 | 0.00 | 0.00 | 65 | 1007.2 |
| 20260505213741 | 87 | 180 | 7.0 | 18.2 | 0.00 | 0.00 | 0.00 | 65 | 1007.2 |
| 20260505213240 | 86 | 193 | 6.1 | 11.3 | 0.00 | 0.00 | 0.00 | 68 | 1007.1 |
| 20260505213026 | 87 | 159 | 6.1 | 11.3 | 0.00 | 0.00 | 0.00 | 67 | 1007.2 |
| 20260505212231 | 87 | 195 | 6.1 | 11.3 | 0.00 | 0.00 | 0.00 | 70 | 1007.2 |
| 20260505211729 | 87 | 219 | 6.1 | 10.4 | 0.00 | 0.00 | 0.00 | 65 | 1007.4 |
| 20260505211240 | 87 | 205 | 7.0 | 15.6 | 0.00 | 0.00 | 0.00 | 70 | 1007.7 |
| 20260505211230 | 87 | 173 | 7.0 | 15.6 | 0.00 | 0.00 | 0.00 | 66 | 1007.4 |
| 20260505211203 | 89 | 164 | 6.1 | 15.6 | 0.00 | 0.00 | 0.00 | 65 | 1006.9 |
| 20260505210327 | 85 | 0 | 6.1 | 11.3 | 0.00 | 0.00 | 0.00 | 69 | 1007.6 |
| 20260505210243 | 88 | 168 | 7.0 | 13.9 | 0.00 | 0.00 | 0.00 | 66 | 1007.3 |
| 20260505210228 | 88 | 117 | 6.1 | 12.2 | 0.00 | 0.00 | 0.00 | 69 | 1007.2 |
| 20260505205557 | 86 | 119 | 7.0 | 13.9 | 0.00 | 0.00 | 0.00 | 70 | 1007.9 |
| 20260505205223 | 87 | 0 | 7.0 | 14.8 | 0.00 | 0.00 | 0.00 | 66 | 1007.5 |
| 20260505204747 | 88 | 0 | 7.8 | 14.8 | 0.00 | 0.00 | 0.00 | 67 | 1007.6 |
| 20260505204247 | 88 | 155 | 7.8 | 13.0 | 0.00 | 0.00 | 0.00 | 65 | 1007.6 |
| 20260505204228 | 87 | 0 | 6.1 | 15.6 | 0.00 | 0.00 | 0.00 | 67 | 1007.5 |
| 20260505203745 | 87 | 159 | 7.0 | 13.9 | 0.00 | 0.00 | 0.00 | 70 | 1007.6 |
| 20260505203700 | 86 | 153 | 6.1 | 13.9 | 0.00 | 0.00 | 0.00 | 68 | 1008.0 |
| 20260505202312 | 85 | 136 | 6.1 | 11.3 | 0.00 | 0.00 | 0.00 | 73 | 1007.5 |
| 20260505200127 | 85 | 0 | 5.2 | 0.0 | 0.00 | 0.00 | 0.00 | 73 | 1007.9 |